Погода в Великой Губе

Россия / Республика Карелия     62°14′55″N   35°04′12″E
темп.,
°C
ветер,
м/с
пор.,
м/с
влажн.,
%
обл.,
%
осадки,
мм/ч
давл.,
гПа
погр.,
м
4 июля, пн
пн400:00+17юв2376100 0.2 101542
03:00+15ююв228990 0.6 101538
06:00+17юв228945 0.1 101575
09:00+20ююв227612 0.1 1015237
12:00+23ююв226751 0.1 1015398
15:00+23ю346493 0.1 1014328
18:00+20ююз238399 1.6 101397
21:00+18зюз238881 2.2 101348
5 июля, вт
вт500:00+16ююв239775 1.4 101360
03:00+15ююв229723 1.4 101338
06:00+17ююз23929 0.0 101278
09:00+20ю23749 0.0 1012274
12:00+21ююв356510 0.0 1011297
15:00+22ююв356290 0.1 1010328
18:00+18зсз15903 0.8 1010204
21:00+17ю22890 0.8 100933
6 июля, ср
ср600:00+15ю489819 0.0 1010176
03:00+14зюз3109696 0.0 1009204
06:00+16зюз410750 0.0 1009296
09:00+19зюз58570 0.0 1010689
12:00+21ююз57461 0.0 10111631
15:00+22ююз574343 0.0 10101806
18:00+20ююз375679 0.0 1010421
21:00+17юз3669100 0.0 1010123
7 июля, чт
чт700:00+16зюз1169100 0.0 101011
03:00+15ююв1169100 0.0 101011
06:00+14юв238716 0.1 1009111
09:00+16ю348060 0.5 1009314
12:00+19ю34635 0.1 1010757
15:00+20юз46594 0.5 10111084
18:00+19ю5765100 0.1 1011324
21:00+16ю357894 0.1 1011103
8 июля, пт
пт800:00+14зюз2678100 0.0 101298
03:00+15юз387790 0.0 1012268
06:00+14юз397666 0.0 1012276
09:00+16юз4869100 0.0 1012526
12:00+19ююз5758100 0.0 10121327
15:00+16юз4879100 0.1 1013419
18:00+18юз3769100 0.0 1012548
21:00+16юз377994 0.1 1012229